STARLINK-32380 (61069 NORAD) Tracking and Keplerian Element Data

This shows tracking and keplerian element data for the satellite.

Feedback or suggestion? Click here.




ElementValue
Catalog61069
NameSTARLINK-32380
Epoch Orbit590
Epoch Day286.91668981
Epoch Year2024
RAAN321.8634
Inclination53.1593
Eccentricity0.0001144
Argument of Perigee106.4858
Mean Anonmoly249.8743
Mean Motion15.39695785
Decay Rate-0.00093614
L11 61069U 24164V 24286.91668981 -.00093614 00000+0 -23533-2 0 9991
L22 61069 53.1593 321.8634 0001144 106.4858 249.8743 15.39695785 5908



Live tracking and technical data element details for STARLINK-32380 (NORAD 61069). STARLINK-32380 can be tracked NOW for your location showing map with azimuth and elevation plus other details from your city location.







IsCatalogInMostPopularTable: catalog: 61069, numindb: 26
Update: records affected: 1



GetName: 61069 STARLINK-32380

Hit Count: updated at: Wed, 04 Dec 2024 11:27:08 GMT